User: anonymous   Login
Location: Poughquag
(41.6090°N, 73.6820°W)
Time: 12:32:14
(UTC-04:00)
Language:

A-11 Canister half - Orbit

View from above orbital plane
View from above orbital plane
View from above satellite
View from above satellite

Ground track
Ground track

The orbit data is extracted from the following two-line orbital elements,

1    51U 60009C   20185.71485347 -.00000048 +00000-0 +34822-3 0  9991
2    51 047.2141 297.1132 0108057 210.9731 148.4653 12.18275723666070
Epoch (UTC): 03 July 2020 17:09:23
Eccentricity: 0.0108057
inclination: 47.2141°
perigee height: 1514 km
apogee height: 1686 km
right ascension of ascending node: 297.1132°
argument of perigee: 210.9731°
revolutions per day: 12.18275723
mean anomaly at epoch: 148.4653°
orbit number at epoch: 66607

The dashed part of the orbit path shows where the satellite is in the earth's shadow,  

DLR